Location: Bu�n Treun
(12.1333°N, 108.3167°E)
Time: 23:48:10
(UTC+00:00)

ASTRO E2 - Pass Details

Date: 13 July 2020
Orbit: 510 x 516 km, 31.4° (Epoch: 02 August)

Event Time Altitude Azimuth Distance (km) Brightness Sun altitude
Exits shadow 21:10:56 14° 311° (NW) 1,465 4.8 -18.2°
Maximum altitude 21:14:11 60° 30° (NNE) 581 3.1 -17.5°
Drops below altitude 10° 21:18:05 10° 110° (ESE) 1,714 5.9 -16.7°
Sets 21:20:20 0° 114° (ESE) 2,600 6.8 -16.2°
